Regional Weather Roundup
Issued by NWS

Home | Current Version | Previous Version | Graphics & Text | Print | Product List | Glossary On
Versions: 1 2 3 4 5 6 7 8 9 10 11 12 13 14 15 16 17 18 19 20 21 22 23 24 25 26 27 28 29 30 31 32 33 34 35 36 37 38 39 40 41 42 43 44 45 46 47 48 49 50
000
ASUS45 KCYS 270510
RWRWY

WYOMING REGIONAL WEATHER ROUNDUP
NATIONAL WEATHER SERVICE CHEYENNE WY
1000 PM MST THU FEB 26 2015

NOTE:  "FAIR" INDICATES FEW OR NO CLOUDS BELOW 12,000 FEET
WITH NO SIGNIFICANT WEATHER AND/OR OBSTRUCTIONS TO VISIBILITY.

WYZ001-270600-
YELLOWSTONE NATIONAL PARK

CITY           SKY/WX    TMP DP  RH WIND       PRES   REMARKS
LK YELLOWSTONE   N/A     -1  -7  75 CALM      29.87F
W YELLOWSTONE  NOT AVBL

$$
WYZ002>013-054>058-071-098>099-270600-
NORTHERN WYOMING

CITY           SKY/WX    TMP DP  RH WIND       PRES   REMARKS
JACKSON        FAIR      16   7  67 NW5       29.89S WCI   9
CODY           FAIR       1   1 100 CALM      30.07F
GREYBULL       CLOUDY    14   4  64 NE6       30.16F WCI   5
WORLAND        CLOUDY    16  10  77 S8        30.14F WCI   5
SHERIDAN       FAIR      -5 -11  75 CALM      30.18F
BUFFALO        CLOUDY     8   2  76 SE13      30.11F WCI  -8
GILLETTE       FAIR      -2  -7  79 S7        30.21F WCI -15
HULETT         FAIR       0  -8  71 MISG      30.24F
NEWCASTLE      FAIR       1  -2  85 S3        30.28S

$$
WYZ014>020-022>026-101>103-270600-
CENTRAL WYOMING

CITY           SKY/WX    TMP DP  RH WIND       PRES   REMARKS
BIG PINEY      CLOUDY    13   7  77 S10       29.93R WCI   0
PINEDALE       LGT SNOW  14  12  92 S6        29.93R WCI   5
DUBOIS         LGT SNOW   5   3  92 SE3       29.93F
LANDER         LGT SNOW   7   2  80 W6        30.05F WCI  -3
RIVERTON       CLOUDY     6   1  80 NE7       30.07F WCI  -6
CASPER         FLURRIES   3  -2  79 NE5       30.10F WCI  -6
DOUGLAS        LGT SNOW   9   5  84 SE14      30.16F FOG     WCI  -7

$$
WYZ021-027>030-104>119-270600-
SOUTHERN WYOMING

CITY           SKY/WX    TMP DP  RH WIND       PRES   REMARKS
EVANSTON       CLOUDY    22  20  92 CALM      29.86F
FORT BRIDGER   FLURRIES  13  12  96 NE7       29.91R WCI   3
ROCK SPRINGS   FAIR       7   3  84 NE13      29.95R WCI  -9
DIXON          FAIR      18  10  69 NE8       29.91S WCI   8
RAWLINS        FAIR       4  -1  80 NE20      29.95F WCI -17
SARATOGA       LGT SNOW   7   3  85 W6        29.92F WCI  -3
LARAMIE        CLOUDY     3  -3  76 SE18G26   29.93F WCI -17
CHEYENNE       LGT SNOW   7   3  84 S13       30.06F FOG     WCI  -9
TORRINGTON     CLOUDY     7   0  73 E14       30.25S WCI -10
PINE BLUFFS    CLOUDY     9   5  85 SE10      30.18S WCI  -6

$$


USA.gov is the U.S. government's official web portal to all federal, state and local government web resources and services.